Location: Unspecified
(51.5147°N, 7.4673°E)
Time: 06:48:03
(UTC+01:00)

A-11 Canister half - Pass Details

Date: 25 February 2026
Orbit: 1512 x 1687 km, 47.2° (Epoch: 5 March)

Event Time Altitude Azimuth Distance (km) Brightness Sun altitude
Rises 16:46:36 0° 166° (SSE) 4,915 11.9 10.3°
Reaches altitude 10° 16:53:23 10° 135° (SE) 3,947 11.0 9.3°
Maximum altitude 16:55:41 11° 121° (ESE) 3,872 10.8 9.0°
Drops below altitude 10° 16:57:58 10° 108° (ESE) 3,951 10.8 8.7°
Sets 17:04:43 0° 77° (ENE) 4,930 11.0 7.7°
